Time,TemperatureF,DewpointF,PressureIn,WindDirection,WindDirectionDegrees,WindSpeedMPH,WindSpeedGustMPH,Humidity,HourlyPrecipIn,Conditions,Clouds,dailyrainin,SoftwareType,DateUTC
2013-02-16 00:00:00,38.2,31.6,29.93,West,277,1.0,1.0,77,0.00,,,0.00,Wunderground v.1.13,2013-02-16 05:00:00,
2013-02-16 00:05:00,37.9,31.7,29.93,WNW,287,1.0,1.0,78,0.00,,,0.00,Wunderground v.1.13,2013-02-16 05:05:00,
2013-02-16 00:10:00,37.8,31.9,29.93,NNW,330,0.0,0.0,79,0.00,,,0.00,Wunderground v.1.13,2013-02-16 05:10:00,
2013-02-16 00:15:00,37.6,32.0,29.93,SW,236,0.0,0.0,80,0.00,,,0.00,Wunderground v.1.13,2013-02-16 05:15:00,
2013-02-16 00:25:00,37.3,32.0,29.93,West,271,0.0,1.0,81,0.00,,,0.00,Wunderground v.1.13,2013-02-16 05:25:00,
2013-02-16 00:30:00,37.0,32.0,29.93,WNW,298,1.0,1.0,82,0.00,,,0.00,Wunderground v.1.13,2013-02-16 05:30:00,
2013-02-16 00:40:00,36.8,32.4,29.93,WNW,288,0.0,0.0,84,0.00,,,0.01,Wunderground v.1.13,2013-02-16 05:40:00,
2013-02-16 00:45:00,36.6,32.2,29.93,NW,313,0.0,0.0,84,0.00,,,0.01,Wunderground v.1.13,2013-02-16 05:45:00,
2013-02-16 00:50:00,36.3,32.2,29.93,NNW,335,0.0,0.0,85,0.00,,,0.01,Wunderground v.1.13,2013-02-16 05:50:00,
2013-02-16 00:55:00,36.2,32.1,29.93,ENE,65,0.0,0.0,85,0.00,,,0.01,Wunderground v.1.13,2013-02-16 05:55:00,
2013-02-16 01:05:00,35.6,32.1,29.93,North,350,0.0,0.0,87,0.06,,,0.03,Wunderground v.1.13,2013-02-16 06:05:00,
2013-02-16 01:10:00,35.3,31.8,29.93,NW,325,0.0,0.0,87,0.06,,,0.03,Wunderground v.1.13,2013-02-16 06:10:00,
2013-02-16 01:15:00,35.0,31.8,29.93,NNW,328,0.0,0.0,88,0.05,,,0.03,Wunderground v.1.13,2013-02-16 06:15:00,
2013-02-16 01:25:00,34.7,31.5,29.93,NW,325,0.0,0.0,88,0.05,,,0.04,Wunderground v.1.13,2013-02-16 06:25:00,
2013-02-16 01:30:00,34.6,31.7,29.93,NW,325,0.0,0.0,89,0.05,,,0.05,Wunderground v.1.13,2013-02-16 06:30:00,
2013-02-16 01:35:00,34.6,31.7,29.93,NW,325,0.0,0.0,89,0.05,,,0.05,Wunderground v.1.13,2013-02-16 06:35:00,
2013-02-16 01:45:00,34.3,31.7,29.93,NW,325,0.0,0.0,90,0.04,,,0.05,Wunderground v.1.13,2013-02-16 06:45:00,
2013-02-16 01:50:00,34.3,31.7,29.93,NW,325,0.0,0.0,90,0.00,,,0.05,Wunderground v.1.13,2013-02-16 06:50:00,
2013-02-16 01:55:00,34.1,31.5,29.93,NW,325,0.0,0.0,90,0.00,,,0.06,Wunderground v.1.13,2013-02-16 06:55:00,
2013-02-16 02:05:00,34.0,31.6,29.92,NW,325,0.0,0.0,91,0.00,,,0.06,Wunderground v.1.13,2013-02-16 07:05:00,
2013-02-16 02:10:00,34.0,31.6,29.92,NW,325,0.0,0.0,91,0.00,,,0.06,Wunderground v.1.13,2013-02-16 07:10:00,
2013-02-16 02:15:00,33.8,31.5,29.91,NW,325,0.0,0.0,91,0.00,,,0.06,Wunderground v.1.13,2013-02-16 07:15:00,
2013-02-16 02:25:00,33.8,31.7,29.91,North,0,0.0,0.0,92,0.00,,,0.07,Wunderground v.1.13,2013-02-16 07:25:00,
2013-02-16 02:30:00,33.8,31.7,29.91,NE,54,0.0,0.0,92,0.00,,,0.07,Wunderground v.1.13,2013-02-16 07:30:00,
2013-02-16 02:35:00,33.8,31.7,29.91,NNW,347,0.0,0.0,92,0.00,,,0.07,Wunderground v.1.13,2013-02-16 07:35:00,
2013-02-16 02:45:00,33.7,31.4,29.91,NE,38,1.0,1.0,91,0.00,,,0.08,Wunderground v.1.13,2013-02-16 07:45:00,
2013-02-16 02:50:00,33.5,31.2,29.91,NNE,28,2.0,3.0,91,0.00,,,0.08,Wunderground v.1.13,2013-02-16 07:50:00,
2013-02-16 02:55:00,33.5,31.2,29.91,NE,42,2.0,4.0,91,0.00,,,0.08,Wunderground v.1.13,2013-02-16 07:55:00,
2013-02-16 03:00:00,33.5,31.2,29.91,NNE,27,1.0,1.0,91,0.00,,,0.08,Wunderground v.1.13,2013-02-16 08:00:00,
2013-02-16 03:10:00,33.5,31.2,29.91,NE,35,0.0,0.0,91,0.00,,,0.08,Wunderground v.1.13,2013-02-16 08:10:00,
2013-02-16 03:15:00,33.5,31.2,29.90,NE,35,0.0,0.0,91,0.00,,,0.08,Wunderground v.1.13,2013-02-16 08:15:00,
2013-02-16 03:25:00,33.4,31.1,29.90,NNW,328,0.0,0.0,91,0.00,,,0.08,Wunderground v.1.13,2013-02-16 08:25:00,
2013-02-16 03:30:00,33.4,31.1,29.90,NNW,328,0.0,0.0,91,0.00,,,0.08,Wunderground v.1.13,2013-02-16 08:30:00,
2013-02-16 03:35:00,33.4,31.1,29.90,NNW,329,0.0,0.0,91,0.00,,,0.08,Wunderground v.1.13,2013-02-16 08:35:00,
2013-02-16 03:45:00,33.2,30.6,29.90,NNE,21,0.0,0.0,90,0.00,,,0.08,Wunderground v.1.13,2013-02-16 08:45:00,
2013-02-16 03:50:00,33.2,30.6,29.90,NNE,24,1.0,2.0,90,0.00,,,0.08,Wunderground v.1.13,2013-02-16 08:50:00,
2013-02-16 03:55:00,33.2,30.6,29.90,NNE,25,1.0,1.0,90,0.00,,,0.08,Wunderground v.1.13,2013-02-16 08:55:00,
2013-02-16 04:05:00,33.2,30.6,29.90,NE,34,1.0,1.0,90,0.00,,,0.08,Wunderground v.1.13,2013-02-16 09:05:00,
2013-02-16 04:10:00,33.2,30.6,29.90,NE,34,0.0,0.0,90,0.00,,,0.08,Wunderground v.1.13,2013-02-16 09:10:00,
2013-02-16 04:15:00,33.2,30.6,29.90,NE,34,0.0,0.0,90,0.00,,,0.08,Wunderground v.1.13,2013-02-16 09:15:00,
2013-02-16 04:25:00,33.1,30.5,29.90,NE,35,1.0,1.0,90,0.00,,,0.08,Wunderground v.1.13,2013-02-16 09:25:00,
2013-02-16 04:30:00,33.1,30.5,29.90,NE,35,0.0,0.0,90,0.00,,,0.08,Wunderground v.1.13,2013-02-16 09:30:00,
2013-02-16 04:35:00,33.1,30.5,29.90,NE,35,0.0,0.0,90,0.00,,,0.08,Wunderground v.1.13,2013-02-16 09:35:00,
2013-02-16 04:40:00,33.1,30.5,29.90,NE,35,0.0,0.0,90,0.00,,,0.08,Wunderground v.1.13,2013-02-16 09:40:00,
2013-02-16 04:50:00,32.9,30.3,29.90,NE,35,0.0,0.0,90,0.00,,,0.08,Wunderground v.1.13,2013-02-16 09:50:00,
2013-02-16 04:55:00,32.8,30.2,29.90,NE,35,0.0,1.0,90,0.00,,,0.08,Wunderground v.1.13,2013-02-16 09:55:00,
2013-02-16 05:00:00,32.7,30.1,29.91,NE,35,0.0,0.0,90,0.00,,,0.08,Wunderground v.1.13,2013-02-16 10:00:00,
2013-02-16 05:10:00,32.7,30.1,29.91,West,271,0.0,0.0,90,0.00,,,0.08,Wunderground v.1.13,2013-02-16 10:10:00,
2013-02-16 05:15:00,32.7,30.1,29.91,West,271,0.0,0.0,90,0.00,,,0.08,Wunderground v.1.13,2013-02-16 10:15:00,
2013-02-16 05:25:00,32.7,30.1,29.91,West,271,0.0,0.0,90,0.00,,,0.08,Wunderground v.1.13,2013-02-16 10:25:00,
2013-02-16 05:30:00,32.7,30.1,29.91,West,271,0.0,0.0,90,0.00,,,0.08,Wunderground v.1.13,2013-02-16 10:30:00,
2013-02-16 05:35:00,32.7,30.1,29.91,West,271,0.0,0.0,90,0.00,,,0.08,Wunderground v.1.13,2013-02-16 10:35:00,
2013-02-16 05:45:00,32.7,30.1,29.91,West,271,0.0,0.0,90,0.00,,,0.08,Wunderground v.1.13,2013-02-16 10:45:00,
2013-02-16 05:50:00,32.7,30.1,29.92,West,271,0.0,0.0,90,0.00,,,0.08,Wunderground v.1.13,2013-02-16 10:50:00,
2013-02-16 05:55:00,32.7,30.1,29.92,West,271,0.0,0.0,90,0.00,,,0.08,Wunderground v.1.13,2013-02-16 10:55:00,
2013-02-16 06:00:00,32.7,30.1,29.91,West,271,0.0,0.0,90,0.00,,,0.08,Wunderground v.1.13,2013-02-16 11:00:00,
2013-02-16 06:10:00,32.4,29.8,29.91,WNW,284,0.0,0.0,90,0.00,,,0.08,Wunderground v.1.13,2013-02-16 11:10:00,
2013-02-16 06:15:00,32.2,29.3,29.92,WNW,284,0.0,0.0,89,0.00,,,0.08,Wunderground v.1.13,2013-02-16 11:15:00,
2013-02-16 06:25:00,31.9,29.0,29.92,NE,49,1.0,1.0,89,0.00,,,0.08,Wunderground v.1.13,2013-02-16 11:25:00,
2013-02-16 06:30:00,31.8,28.9,29.92,NE,45,1.0,1.0,89,0.00,,,0.08,Wunderground v.1.13,2013-02-16 11:30:00,
2013-02-16 06:35:00,31.8,28.9,29.91,ENE,75,1.0,1.0,89,0.00,,,0.08,Wunderground v.1.13,2013-02-16 11:35:00,
2013-02-16 06:40:00,31.8,28.7,29.91,NNE,28,2.0,2.0,88,0.00,,,0.08,Wunderground v.1.13,2013-02-16 11:40:00,
2013-02-16 06:50:00,31.6,28.5,29.92,NE,44,1.0,3.0,88,0.00,,,0.08,Wunderground v.1.13,2013-02-16 11:50:00,
2013-02-16 06:55:00,31.6,28.2,29.92,ENE,61,2.0,2.0,87,0.00,,,0.08,Wunderground v.1.13,2013-02-16 11:55:00,
2013-02-16 07:00:00,31.6,27.9,29.91,North,0,2.0,2.0,86,0.00,,,0.08,Wunderground v.1.13,2013-02-16 12:00:00,
2013-02-16 07:10:00,31.6,28.2,29.91,NE,40,0.0,0.0,87,0.00,,,0.08,Wunderground v.1.13,2013-02-16 12:10:00,
2013-02-16 07:15:00,31.6,28.2,29.91,NE,38,0.0,0.0,87,0.00,,,0.08,Wunderground v.1.13,2013-02-16 12:15:00,
2013-02-16 07:25:00,31.5,28.1,29.91,NE,38,0.0,0.0,87,0.00,,,0.08,Wunderground v.1.13,2013-02-16 12:25:00,
2013-02-16 07:30:00,31.5,27.8,29.91,NE,38,0.0,0.0,86,0.00,,,0.08,Wunderground v.1.13,2013-02-16 12:30:00,
2013-02-16 07:35:00,31.5,27.8,29.92,NE,38,0.0,1.0,86,0.00,,,0.08,Wunderground v.1.13,2013-02-16 12:35:00,
2013-02-16 07:45:00,31.5,27.8,29.92,NE,38,0.0,0.0,86,0.00,,,0.08,Wunderground v.1.13,2013-02-16 12:45:00,
2013-02-16 07:50:00,31.5,27.8,29.93,NE,38,0.0,0.0,86,0.00,,,0.08,Wunderground v.1.13,2013-02-16 12:50:00,
2013-02-16 07:55:00,31.5,27.5,29.93,NE,35,0.0,0.0,85,0.00,,,0.08,Wunderground v.1.13,2013-02-16 12:55:00,
2013-02-16 08:00:00,31.5,27.5,29.92,NNE,30,0.0,0.0,85,0.00,,,0.08,Wunderground v.1.13,2013-02-16 13:00:00,
2013-02-16 08:10:00,31.5,26.6,29.92,NNE,21,1.0,2.0,82,0.00,,,0.08,Wunderground v.1.13,2013-02-16 13:10:00,
2013-02-16 08:15:00,31.5,26.3,29.93,NE,54,1.0,1.0,81,0.00,,,0.08,Wunderground v.1.13,2013-02-16 13:15:00,
2013-02-16 08:25:00,31.8,26.3,29.93,NE,54,0.0,0.0,80,0.00,,,0.08,Wunderground v.1.13,2013-02-16 13:25:00,
2013-02-16 08:30:00,31.8,26.0,29.93,NE,54,0.0,0.0,79,0.00,,,0.08,Wunderground v.1.13,2013-02-16 13:30:00,
2013-02-16 08:35:00,31.8,26.0,29.92,NE,54,0.0,0.0,79,0.00,,,0.08,Wunderground v.1.13,2013-02-16 13:35:00,
2013-02-16 08:45:00,31.9,25.8,29.92,NE,54,0.0,0.0,78,0.00,,,0.08,Wunderground v.1.13,2013-02-16 13:45:00,
2013-02-16 08:50:00,31.8,25.1,29.93,NNE,17,1.0,3.0,76,0.00,,,0.08,Wunderground v.1.13,2013-02-16 13:50:00,
2013-02-16 08:55:00,31.9,24.9,29.93,NNE,18,3.0,3.0,75,0.00,,,0.08,Wunderground v.1.13,2013-02-16 13:55:00,
2013-02-16 09:05:00,31.9,24.6,29.92,NE,52,2.0,2.0,74,0.00,,,0.08,Wunderground v.1.13,2013-02-16 14:05:00,
2013-02-16 09:10:00,32.1,24.7,29.92,West,268,2.0,2.0,74,0.00,,,0.08,Wunderground v.1.13,2013-02-16 14:10:00,
2013-02-16 09:15:00,32.2,24.8,29.92,NE,45,1.0,4.0,74,0.00,,,0.08,Wunderground v.1.13,2013-02-16 14:15:00,
2013-02-16 09:25:00,32.5,25.1,29.92,North,0,1.0,1.0,74,0.00,,,0.08,Wunderground v.1.13,2013-02-16 14:25:00,
2013-02-16 09:30:00,32.7,25.3,29.93,North,354,1.0,2.0,74,0.00,,,0.08,Wunderground v.1.13,2013-02-16 14:30:00,
2013-02-16 09:40:00,32.8,25.1,29.93,North,3,1.0,1.0,73,0.00,,,0.08,Wunderground v.1.13,2013-02-16 14:40:00,
2013-02-16 09:45:00,32.7,24.3,29.93,NE,56,2.0,2.0,71,0.00,,,0.08,Wunderground v.1.13,2013-02-16 14:45:00,
2013-02-16 09:50:00,32.7,24.3,29.92,North,7,2.0,2.0,71,0.00,,,0.08,Wunderground v.1.13,2013-02-16 14:50:00,
2013-02-16 09:55:00,32.8,24.1,29.92,ENE,58,2.0,2.0,70,0.00,,,0.08,Wunderground v.1.13,2013-02-16 14:55:00,
2013-02-16 10:00:00,33.2,25.1,29.91,NNW,335,1.0,1.0,72,0.00,,,0.08,Wunderground v.1.13,2013-02-16 15:00:00,
2013-02-16 10:10:00,33.7,25.0,29.91,NNE,27,2.0,2.0,70,0.00,,,0.08,Wunderground v.1.13,2013-02-16 15:10:00,
2013-02-16 10:15:00,33.5,24.1,29.91,NE,38,3.0,8.0,68,0.00,,,0.08,Wunderground v.1.13,2013-02-16 15:15:00,
2013-02-16 10:25:00,33.5,24.8,29.91,WSW,240,2.0,2.0,70,0.00,,,0.08,Wunderground v.1.13,2013-02-16 15:25:00,
2013-02-16 10:30:00,33.7,24.3,29.91,SSW,203,0.0,0.0,68,0.00,,,0.08,Wunderground v.1.13,2013-02-16 15:30:00,
2013-02-16 10:35:00,33.7,24.3,29.90,West,281,1.0,1.0,68,0.00,,,0.08,Wunderground v.1.13,2013-02-16 15:35:00,
2013-02-16 10:45:00,33.8,24.4,29.91,South,169,1.0,1.0,68,0.00,,,0.08,Wunderground v.1.13,2013-02-16 15:45:00,
2013-02-16 10:55:00,34.0,23.8,29.91,NNE,30,1.0,2.0,66,0.00,,,0.08,Wunderground v.1.13,2013-02-16 15:55:00,
2013-02-16 11:00:00,33.8,23.3,29.91,NE,40,3.0,3.0,65,0.00,,,0.08,Wunderground v.1.13,2013-02-16 16:00:00,
2013-02-16 11:05:00,33.8,23.3,29.90,NE,40,4.0,6.0,65,0.00,,,0.08,Wunderground v.1.13,2013-02-16 16:05:00,
2013-02-16 11:15:00,34.4,24.2,29.90,North,4,4.0,4.0,66,0.00,,,0.08,Wunderground v.1.13,2013-02-16 16:15:00,
2013-02-16 11:20:00,34.7,23.8,29.90,NNW,344,1.0,3.0,64,0.00,,,0.08,Wunderground v.1.13,2013-02-16 16:20:00,
2013-02-16 11:25:00,34.6,24.4,29.90,NNW,336,2.0,2.0,66,0.00,,,0.08,Wunderground v.1.13,2013-02-16 16:25:00,
2013-02-16 11:35:00,34.9,23.9,29.89,South,191,1.0,1.0,64,0.00,,,0.08,Wunderground v.1.13,2013-02-16 16:35:00,
2013-02-16 11:40:00,34.7,23.8,29.89,South,191,1.0,1.0,64,0.00,,,0.08,Wunderground v.1.13,2013-02-16 16:40:00,
2013-02-16 11:45:00,34.9,23.6,29.89,WSW,256,1.0,3.0,63,0.00,,,0.08,Wunderground v.1.13,2013-02-16 16:45:00,
2013-02-16 11:55:00,35.3,24.0,29.89,WSW,246,1.0,4.0,63,0.00,,,0.08,Wunderground v.1.13,2013-02-16 16:55:00,
2013-02-16 12:00:00,35.5,23.8,29.88,North,8,1.0,1.0,62,0.00,,,0.08,Wunderground v.1.13,2013-02-16 17:00:00,
2013-02-16 12:10:00,35.8,23.7,29.88,NNE,24,2.0,6.0,61,0.00,,,0.08,Wunderground v.1.13,2013-02-16 17:10:00,
2013-02-16 12:15:00,35.2,22.3,29.88,NE,42,4.0,4.0,59,0.00,,,0.08,Wunderground v.1.13,2013-02-16 17:15:00,
2013-02-16 12:20:00,35.2,22.3,29.87,North,3,5.0,5.0,59,0.00,,,0.08,Wunderground v.1.13,2013-02-16 17:20:00,
2013-02-16 12:30:00,35.6,22.3,29.87,NE,49,3.0,4.0,58,0.00,,,0.08,Wunderground v.1.13,2013-02-16 17:30:00,
2013-02-16 12:35:00,36.0,23.4,29.87,NW,306,1.0,1.0,60,0.00,,,0.08,Wunderground v.1.13,2013-02-16 17:35:00,
2013-02-16 12:40:00,36.3,23.3,29.87,SW,230,1.0,8.0,59,0.00,,,0.08,Wunderground v.1.13,2013-02-16 17:40:00,
2013-02-16 12:45:00,36.0,23.0,29.86,West,281,1.0,4.0,59,0.00,,,0.08,Wunderground v.1.13,2013-02-16 17:45:00,
2013-02-16 12:55:00,36.5,23.1,29.86,NE,47,2.0,2.0,58,0.00,,,0.08,Wunderground v.1.13,2013-02-16 17:55:00,
2013-02-16 13:00:00,36.9,23.1,29.86,ESE,116,1.0,1.0,57,0.00,,,0.08,Wunderground v.1.13,2013-02-16 18:00:00,
2013-02-16 13:10:00,36.6,22.8,29.86,WNW,299,2.0,2.0,57,0.00,,,0.08,Wunderground v.1.13,2013-02-16 18:10:00,
2013-02-16 13:15:00,36.6,22.4,29.86,NE,47,1.0,6.0,56,0.00,,,0.08,Wunderground v.1.13,2013-02-16 18:15:00,
2013-02-16 13:20:00,36.5,21.8,29.86,North,8,2.0,3.0,55,0.00,,,0.08,Wunderground v.1.13,2013-02-16 18:20:00,
2013-02-16 13:25:00,36.5,22.3,29.86,NNE,23,3.0,7.0,56,0.00,,,0.08,Wunderground v.1.13,2013-02-16 18:25:00,
2013-02-16 13:30:00,36.8,22.1,29.86,NNW,343,3.0,3.0,55,0.00,,,0.08,Wunderground v.1.13,2013-02-16 18:30:00,
2013-02-16 13:40:00,36.9,22.2,29.86,NW,326,1.0,1.0,55,0.00,,,0.08,Wunderground v.1.13,2013-02-16 18:40:00,
2013-02-16 13:45:00,36.9,22.7,29.86,NNW,335,1.0,1.0,56,0.00,,,0.08,Wunderground v.1.13,2013-02-16 18:45:00,
2013-02-16 13:55:00,36.6,21.9,29.85,NNE,32,2.0,2.0,55,0.00,,,0.08,Wunderground v.1.13,2013-02-16 18:55:00,
2013-02-16 14:00:00,36.8,22.1,29.85,East,93,2.0,5.0,55,0.00,,,0.08,Wunderground v.1.13,2013-02-16 19:00:00,
2013-02-16 14:05:00,36.5,21.4,29.84,NNE,27,2.0,2.0,54,0.00,,,0.08,Wunderground v.1.13,2013-02-16 19:05:00,
2013-02-16 14:10:00,36.5,21.4,29.84,NE,55,2.0,2.0,54,0.00,,,0.08,Wunderground v.1.13,2013-02-16 19:10:00,
2013-02-16 14:20:00,36.6,21.1,29.84,NE,34,2.0,3.0,53,0.00,,,0.08,Wunderground v.1.13,2013-02-16 19:20:00,
2013-02-16 14:25:00,36.5,21.0,29.84,WNW,298,1.0,1.0,53,0.00,,,0.08,Wunderground v.1.13,2013-02-16 19:25:00,
2013-02-16 14:30:00,36.8,22.1,29.84,West,265,1.0,2.0,55,0.00,,,0.08,Wunderground v.1.13,2013-02-16 19:30:00,
2013-02-16 14:40:00,36.8,21.7,29.84,North,354,1.0,3.0,54,0.00,,,0.08,Wunderground v.1.13,2013-02-16 19:40:00,
2013-02-16 14:45:00,36.8,21.3,29.84,NE,52,1.0,1.0,53,0.00,,,0.08,Wunderground v.1.13,2013-02-16 19:45:00,
2013-02-16 14:50:00,36.9,21.3,29.82,NE,49,1.0,1.0,53,0.00,,,0.08,Wunderground v.1.13,2013-02-16 19:50:00,
2013-02-16 14:55:00,37.0,21.4,29.82,NE,48,1.0,1.0,53,0.00,,,0.08,Wunderground v.1.13,2013-02-16 19:55:00,
2013-02-16 15:05:00,36.9,21.8,29.82,North,354,1.0,1.0,54,0.00,,,0.08,Wunderground v.1.13,2013-02-16 20:05:00,
2013-02-16 15:10:00,36.8,21.3,29.82,North,6,1.0,1.0,53,0.00,,,0.08,Wunderground v.1.13,2013-02-16 20:10:00,
2013-02-16 15:15:00,36.8,21.3,29.82,West,263,0.0,1.0,53,0.00,,,0.08,Wunderground v.1.13,2013-02-16 20:15:00,
2013-02-16 15:25:00,36.5,21.4,29.82,NW,319,0.0,1.0,54,0.00,,,0.08,Wunderground v.1.13,2013-02-16 20:25:00,
2013-02-16 15:30:00,36.2,21.6,29.82,West,263,0.0,0.0,55,0.00,,,0.08,Wunderground v.1.13,2013-02-16 20:30:00,
2013-02-16 15:40:00,36.0,20.9,29.82,NE,45,0.0,2.0,54,0.00,,,0.08,Wunderground v.1.13,2013-02-16 20:40:00,
2013-02-16 15:45:00,35.9,20.9,29.82,North,4,0.0,0.0,54,0.00,,,0.08,Wunderground v.1.13,2013-02-16 20:45:00,
2013-02-16 15:50:00,35.9,20.4,29.83,NNE,25,0.0,0.0,53,0.00,,,0.08,Wunderground v.1.13,2013-02-16 20:50:00,
2013-02-16 16:00:00,35.8,20.8,29.83,NNE,24,0.0,0.0,54,0.00,,,0.08,Wunderground v.1.13,2013-02-16 21:00:00,
2013-02-16 16:05:00,35.6,21.0,29.83,NE,56,0.0,0.0,55,0.00,,,0.08,Wunderground v.1.13,2013-02-16 21:05:00,
2013-02-16 16:10:00,35.5,20.9,29.83,NE,56,0.0,0.0,55,0.00,,,0.08,Wunderground v.1.13,2013-02-16 21:10:00,
2013-02-16 16:20:00,35.2,20.2,29.83,WNW,298,0.0,0.0,54,0.00,,,0.08,Wunderground v.1.13,2013-02-16 21:20:00,
2013-02-16 16:25:00,35.0,20.4,29.83,NNE,25,1.0,1.0,55,0.00,,,0.08,Wunderground v.1.13,2013-02-16 21:25:00,
2013-02-16 16:30:00,35.0,20.4,29.82,WNW,285,0.0,0.0,55,0.00,,,0.08,Wunderground v.1.13,2013-02-16 21:30:00,
2013-02-16 16:40:00,34.7,20.6,29.82,ENE,59,1.0,4.0,56,0.00,,,0.08,Wunderground v.1.13,2013-02-16 21:40:00,
2013-02-16 16:45:00,34.6,19.6,29.81,NE,42,2.0,4.0,54,0.00,,,0.08,Wunderground v.1.13,2013-02-16 21:45:00,
2013-02-16 16:55:00,34.3,19.4,29.81,North,1,2.0,2.0,54,0.00,,,0.08,Wunderground v.1.13,2013-02-16 21:55:00,
2013-02-16 17:00:00,34.1,19.2,29.81,ENE,59,1.0,1.0,54,0.00,,,0.08,Wunderground v.1.13,2013-02-16 22:00:00,
2013-02-16 17:05:00,34.1,19.6,29.82,North,359,0.0,0.0,55,0.00,,,0.08,Wunderground v.1.13,2013-02-16 22:05:00,
2013-02-16 17:15:00,34.0,19.1,29.82,NE,35,1.0,2.0,54,0.00,,,0.08,Wunderground v.1.13,2013-02-16 22:15:00,
2013-02-16 17:20:00,33.8,19.3,29.81,West,278,1.0,1.0,55,0.00,,,0.08,Wunderground v.1.13,2013-02-16 22:20:00,
2013-02-16 17:25:00,33.7,19.7,29.81,NE,49,1.0,1.0,56,0.00,,,0.08,Wunderground v.1.13,2013-02-16 22:25:00,
2013-02-16 17:35:00,33.5,19.0,29.81,North,350,1.0,1.0,55,0.00,,,0.08,Wunderground v.1.13,2013-02-16 22:35:00,
2013-02-16 17:40:00,33.4,18.5,29.81,WNW,284,1.0,1.0,54,0.00,,,0.08,Wunderground v.1.13,2013-02-16 22:40:00,
2013-02-16 17:45:00,33.2,19.2,29.82,North,354,1.0,1.0,56,0.00,,,0.08,Wunderground v.1.13,2013-02-16 22:45:00,
2013-02-16 17:55:00,33.1,18.7,29.82,ENE,61,0.0,0.0,55,0.00,,,0.08,Wunderground v.1.13,2013-02-16 22:55:00,
2013-02-16 18:00:00,33.1,18.7,29.82,NE,45,1.0,1.0,55,0.00,,,0.08,Wunderground v.1.13,2013-02-16 23:00:00,
2013-02-16 18:10:00,32.9,18.5,29.81,NE,41,1.0,1.0,55,0.00,,,0.08,Wunderground v.1.13,2013-02-16 23:10:00,
2013-02-16 18:15:00,32.8,18.8,29.81,North,1,1.0,1.0,56,0.00,,,0.08,Wunderground v.1.13,2013-02-16 23:15:00,
2013-02-16 18:20:00,32.8,19.2,29.81,NNE,21,1.0,1.0,57,0.00,,,0.08,Wunderground v.1.13,2013-02-16 23:20:00,
2013-02-16 18:30:00,32.7,18.7,29.81,NNE,27,1.0,1.0,56,0.00,,,0.08,Wunderground v.1.13,2013-02-16 23:30:00,
2013-02-16 18:35:00,32.7,18.3,29.81,NNE,32,1.0,1.0,55,0.00,,,0.08,Wunderground v.1.13,2013-02-16 23:35:00,
2013-02-16 18:40:00,32.5,18.5,29.81,North,4,0.0,0.0,56,0.00,,,0.08,Wunderground v.1.13,2013-02-16 23:40:00,
2013-02-16 18:45:00,32.5,18.1,29.81,NE,45,1.0,4.0,55,0.00,,,0.08,Wunderground v.1.13,2013-02-16 23:45:00,
2013-02-16 18:55:00,32.4,18.4,29.81,NE,51,1.0,2.0,56,0.00,,,0.08,Wunderground v.1.13,2013-02-16 23:55:00,
2013-02-16 19:00:00,32.2,18.2,29.81,North,7,1.0,1.0,56,0.00,,,0.08,Wunderground v.1.13,2013-02-17 00:00:00,
2013-02-16 19:05:00,32.2,17.4,29.80,North,354,1.0,1.0,54,0.00,,,0.08,Wunderground v.1.13,2013-02-17 00:05:00,
2013-02-16 19:10:00,32.1,16.9,29.80,NE,41,0.0,0.0,53,0.00,,,0.08,Wunderground v.1.13,2013-02-17 00:10:00,
2013-02-16 19:20:00,31.9,17.1,29.80,North,0,1.0,1.0,54,0.00,,,0.08,Wunderground v.1.13,2013-02-17 00:20:00,
2013-02-16 19:30:00,31.6,16.4,29.80,NNE,25,3.0,6.0,53,0.00,,,0.08,Wunderground v.1.13,2013-02-17 00:30:00,
2013-02-16 19:35:00,31.5,16.3,29.81,WNW,289,3.0,3.0,53,0.00,,,0.08,Wunderground v.1.13,2013-02-17 00:35:00,
2013-02-16 19:40:00,31.5,15.9,29.81,NW,323,2.0,3.0,52,0.00,,,0.08,Wunderground v.1.13,2013-02-17 00:40:00,
2013-02-16 19:45:00,31.3,15.7,29.80,North,6,2.0,2.0,52,0.00,,,0.08,Wunderground v.1.13,2013-02-17 00:45:00,
2013-02-16 19:55:00,31.2,15.2,29.80,ENE,64,1.0,3.0,51,0.00,,,0.08,Wunderground v.1.13,2013-02-17 00:55:00,
2013-02-16 20:00:00,31.2,15.6,29.80,North,352,2.0,2.0,52,0.00,,,0.08,Wunderground v.1.13,2013-02-17 01:00:00,
2013-02-16 20:05:00,31.0,15.4,29.80,NNE,28,1.0,1.0,52,0.00,,,0.08,Wunderground v.1.13,2013-02-17 01:05:00,
2013-02-16 20:15:00,30.9,14.4,29.80,WNW,292,3.0,3.0,50,0.00,,,0.08,Wunderground v.1.13,2013-02-17 01:15:00,
2013-02-16 20:20:00,30.9,14.9,29.80,NE,42,3.0,3.0,51,0.00,,,0.08,Wunderground v.1.13,2013-02-17 01:20:00,
2013-02-16 20:30:00,30.7,14.7,29.80,NNW,346,3.0,3.0,51,0.00,,,0.08,Wunderground v.1.13,2013-02-17 01:30:00,
2013-02-16 20:35:00,30.6,14.1,29.79,NNE,28,2.0,2.0,50,0.00,,,0.08,Wunderground v.1.13,2013-02-17 01:35:00,
2013-02-16 20:40:00,30.6,13.2,29.79,NNE,13,2.0,2.0,48,0.00,,,0.08,Wunderground v.1.13,2013-02-17 01:40:00,
2013-02-16 20:50:00,30.4,13.5,29.79,North,10,1.0,1.0,49,0.00,,,0.08,Wunderground v.1.13,2013-02-17 01:50:00,
2013-02-16 20:55:00,30.4,13.0,29.79,NE,42,1.0,6.0,48,0.00,,,0.08,Wunderground v.1.13,2013-02-17 01:55:00,
2013-02-16 21:00:00,30.4,14.0,29.79,NW,308,2.0,2.0,50,0.00,,,0.08,Wunderground v.1.13,2013-02-17 02:00:00,
2013-02-16 21:10:00,30.3,12.9,29.79,NNE,27,1.0,5.0,48,0.00,,,0.08,Wunderground v.1.13,2013-02-17 02:10:00,
2013-02-16 21:15:00,30.3,12.9,29.79,North,10,2.0,10.0,48,0.00,,,0.08,Wunderground v.1.13,2013-02-17 02:15:00,
2013-02-16 21:25:00,30.3,12.9,29.78,North,359,4.0,4.0,48,0.00,,,0.08,Wunderground v.1.13,2013-02-17 02:25:00,
2013-02-16 21:30:00,30.3,12.9,29.78,North,350,2.0,2.0,48,0.00,,,0.08,Wunderground v.1.13,2013-02-17 02:30:00,
2013-02-16 21:35:00,30.3,12.5,29.79,East,82,1.0,4.0,47,0.00,,,0.08,Wunderground v.1.13,2013-02-17 02:35:00,
2013-02-16 21:40:00,30.1,12.7,29.79,ENE,58,1.0,1.0,48,0.00,,,0.08,Wunderground v.1.13,2013-02-17 02:40:00,
2013-02-16 21:45:00,30.1,12.7,29.78,NNE,25,2.0,2.0,48,0.00,,,0.08,Wunderground v.1.13,2013-02-17 02:45:00,
2013-02-16 21:55:00,30.1,12.3,29.78,North,3,2.0,2.0,47,0.00,,,0.08,Wunderground v.1.13,2013-02-17 02:55:00,
2013-02-16 22:00:00,30.1,12.7,29.78,NE,45,1.0,1.0,48,0.00,,,0.08,Wunderground v.1.13,2013-02-17 03:00:00,
2013-02-16 22:05:00,30.1,12.3,29.78,NE,45,1.0,2.0,47,0.00,,,0.08,Wunderground v.1.13,2013-02-17 03:05:00,
2013-02-16 22:15:00,30.1,12.7,29.78,North,0,2.0,2.0,48,0.00,,,0.08,Wunderground v.1.13,2013-02-17 03:15:00,
2013-02-16 22:20:00,30.0,12.7,29.77,North,8,1.0,1.0,48,0.00,,,0.08,Wunderground v.1.13,2013-02-17 03:20:00,
2013-02-16 22:25:00,30.0,12.7,29.77,NE,49,0.0,0.0,48,0.00,,,0.08,Wunderground v.1.13,2013-02-17 03:25:00,
2013-02-16 22:30:00,29.8,11.5,29.76,NE,49,1.0,5.0,46,0.00,,,0.08,Wunderground v.1.13,2013-02-17 03:30:00,
2013-02-16 22:40:00,29.8,11.0,29.76,ENE,64,2.0,8.0,45,0.00,,,0.08,Wunderground v.1.13,2013-02-17 03:40:00,
2013-02-16 22:45:00,29.8,11.5,29.76,NE,34,3.0,3.0,46,0.00,,,0.08,Wunderground v.1.13,2013-02-17 03:45:00,
2013-02-16 22:55:00,29.7,12.4,29.75,North,10,2.0,2.0,48,0.00,,,0.08,Wunderground v.1.13,2013-02-17 03:55:00,
2013-02-16 23:00:00,29.7,11.9,29.75,North,353,2.0,2.0,47,0.00,,,0.08,Wunderground v.1.13,2013-02-17 04:00:00,
2013-02-16 23:05:00,29.5,11.7,29.73,NE,38,2.0,3.0,47,0.00,,,0.08,Wunderground v.1.13,2013-02-17 04:05:00,
2013-02-16 23:10:00,29.4,11.1,29.73,North,10,3.0,3.0,46,0.00,,,0.08,Wunderground v.1.13,2013-02-17 04:10:00,
2013-02-16 23:15:00,29.4,11.1,29.73,NNE,32,5.0,13.0,46,0.00,,,0.08,Wunderground v.1.13,2013-02-17 04:15:00,
2013-02-16 23:25:00,29.3,11.5,29.72,NW,326,5.0,5.0,47,0.00,,,0.08,Wunderground v.1.13,2013-02-17 04:25:00,
2013-02-16 23:30:00,29.3,12.0,29.72,North,8,3.0,3.0,48,0.00,,,0.08,Wunderground v.1.13,2013-02-17 04:30:00,
2013-02-16 23:35:00,29.1,11.4,29.71,NE,37,3.0,3.0,47,0.00,,,0.08,Wunderground v.1.13,2013-02-17 04:35:00,
2013-02-16 23:40:00,29.1,11.8,29.71,North,0,2.0,2.0,48,0.00,,,0.08,Wunderground v.1.13,2013-02-17 04:40:00,
2013-02-16 23:50:00,29.0,11.3,29.71,East,85,2.0,3.0,47,0.00,,,0.08,Wunderground v.1.13,2013-02-17 04:50:00,
2013-02-16 23:55:00,28.8,11.6,29.71,WSW,254,2.0,2.0,48,0.00,,,0.08,Wunderground v.1.13,2013-02-17 04:55:00,